Regional Weather Roundup
Issued by NWS Wilmington, NC

Home | Current Version | Previous Version | Text Only | Print | Product List | Glossary On
Versions: 1 2 3 4 5 6 7 8 9 10 11 12 13 14 15 16 17 18 19 20 21 22 23 24 25 26 27 28 29 30 31 32 33 34 35 36 37 38 39 40 41 42 43 44 45 46 47 48 49 50
000
ASUS42 KILM 180913
RWRILM
RWRILM
REGIONAL HOURLY WEATHER ROUNDUP
NATIONAL WEATHER SERVICE WILMINGTON NC
400 AM EST MON DEC 18 2017

NOTE: "FAIR" INDICATES FEW OR NO CLOUDS BELOW 12,000 FEET WITH NO
SIGNIFICANT WEATHER AND/OR OBSTRUCTIONS TO VISIBILITY.

...............WFO WILMINGTON COUNTY WARNING AREA...............

......COASTAL NC AND SC COUNTIES......

CITY           SKY/WX    TMP DP  RH WIND       PRES   REMARKS
WILMINGTON     CLOUDY    53  48  83 CALM      30.17F
N MYRTLE BEACH LGT RAIN  55  51  86 CALM      30.16F
MYRTLE BEACH   CLOUDY    55  52  89 S6        30.18F

......INLAND NC AND SC COUNTIES.......

CITY           SKY/WX    TMP DP  RH WIND       PRES   REMARKS
LUMBERTON      CLOUDY    51  45  79 CALM      30.16F
ELIZABETHTOWN  NOT AVBL
WHITEVILLE     CLOUDY    53  47  82 CALM      30.17S
FLORENCE       CLOUDY    53  42  66 CALM      30.17S
DARLINGTON     CLOUDY    51  43  74 CALM      30.17S
KINGSTREE      CLOUDY    52  50  93 CALM      30.17F
HARTSVILLE     CLOUDY    50  39  66 CALM      30.17R
BENNETTSVILLE  CLOUDY    52  45  76 CALM      30.16F
CONWAY         CLOUDY    52  50  93 CALM      30.17S
GEORGETOWN     CLOUDY    54  52  94 CALM      30.18F
MARION         CLOUDY    52  45  76 S3        30.16F

....................REST OF NORTH CAROLINA......................

.........EASTERN NC.........

CITY           SKY/WX    TMP DP  RH WIND       PRES   REMARKS
CAPE HATTERAS  CLOUDY    49  48  97 CALM      30.17F
JACKSONVILLE   CLOUDY    50  47  89 CALM      30.17F
MOREHEAD CITY  CLOUDY    53  47  79 CALM      30.17F
KENANSVILLE    CLOUDY    50  45  81 CALM      30.17F
NEW BERN       CLOUDY    50  46  86 CALM      30.18S
ELIZABETH CITY CLOUDY    42  42 100 SW5       30.16F

.........CENTRAL NC.........

CITY           SKY/WX    TMP DP  RH WIND       PRES   REMARKS
RALEIGH DURHAM CLOUDY    40  38  93 CALM      30.17S
ROCKY MOUNT    PTCLDY    41  41 100 CALM      30.17F
ROANOKE RAPIDS NOT AVBL
FAYETTEVILLE   CLOUDY    51  42  71 CALM      30.16F
HOFFMAN        CLOUDY    49  40  71 CALM      30.16F

.........WESTERN NC.........

CITY           SKY/WX    TMP DP  RH WIND       PRES   REMARKS
CHARLOTTE      CLOUDY    48  41  76 CALM      30.16F
GREENSBORO     CLOUDY    35  34  96 W3        30.15S
HICKORY        NOT AVBL
BOONE          NOT AVBL
ASHEVILLE      NOT AVBL

.....................REST OF SOUTH CAROLINA.....................

.........EASTERN SC.........

CITY           SKY/WX    TMP DP  RH WIND       PRES   REMARKS
CHARLESTON     CLOUDY    60  56  86 SW10      30.17F
BEAUFORT MCAS  CLOUDY    56  54  93 S5        30.19S
HILTON HEAD    CLOUDY    61  59  94 SW6       30.19F

.........CENTRAL SC.........

CITY           SKY/WX    TMP DP  RH WIND       PRES   REMARKS
COLUMBIA       CLOUDY    53  41  63 NW3       30.16F
ORANGEBURG     CLOUDY    54  47  77 S5        30.16F
SUMTER SHAW    CLOUDY    52  39  61 CALM      30.14F

.........WESTERN SC.........

CITY           SKY/WX    TMP DP  RH WIND       PRES   REMARKS
GREENVILLE     NOT AVBL
ROCK HILL      CLOUDY    48  39  71 CALM      30.16F
ANDERSON       CLOUDY    47  42  83 SW3       30.16F
CLEMSON        NOT AVBL
GREENWOOD      CLOUDY    47  44  90 CALM      30.18F


...................COASTAL AND OFFSHORE REPORTS..................

................LOCAL PIERS AND NC RESERVE................


STATION/POSITION TIME  SKY/WX   TEMP    WIND        PRES    VSBY
                                AIR SEA DIR/SP/G
                 (UTC)          (F)     (DEG/KT/KT) (MB)    (MI)
JOHNY MRCER PIER 0848            55 56  190/  3/  3 1021.6F
NC RESRV MASNBRO 0745            52        CALM     1022.0
OCEAN CREST PIER NOT AVBL
SPRINGMAID  PIER 0848                               1024.8F


................COASTAL AND OFFSHORE BUOYS................


STATION/POSITION TIME  SKY/WX   TEMP    WIND        PRES    VSBY
                                AIR SEA DIR/SP/G
                 (UTC)          (F)     (DEG/KT/KT) (MB)    (MI)
DIMNDSHOAL 41025 0850            58 72  280/ 12/ 16 1022.0F
WVE H/P(F/S)=  2/10 SWL H/P/D(F/S/D)=  2/130/10

CAPE LOOKOUT     0900                   190/  3/  3 1021.7F
ONSLOW BAY 41036 NOT AVBL
ONSLOW BAY 41064 0808            59 63  250/  2/  4 1022.3S
ONSLOW BAY 41159 0900               63                N/A
WVE H/P(F/S)=  1/10

MASNBO INL 41110 0859               56                N/A
WVE H/P(F/S)=  1/11

WILM HARBR 41108 0900               56                N/A
WVE H/P(F/S)=  1/10

27SE WRITB 41037 0808            59 61  140/  4/  6 1022.2F
FRYING PAN 41013 0850            62 67   20/  4/  6 1021.5F
WVE H/P(F/S)=  2/ 9 SWL H/P/D(F/S/D)=  2/110/ 9

SUNST NRSH 41024 0808            53      80/  2/  4 1022.1S
CAPRS NRSH 41029 0808            53 55  160/  2/  2 1021.7F
EDISTO     41004 0850            71 73  230/ 14/ 17 1021.4F
WVE H/P(F/S)=  2/ 4 SWL H/P/D(F/S/D)=  2/140/10



..........OFFSHORE BUOYS BEYOND 100 NM OFFSHORE...........
.....IN A TRIANGLE---HAT TO BERMUDA TO BAHAMAS TO HAT.....


STATION/POSITION TIME  SKY/WX   TEMP    WIND        PRES    VSBY
                                AIR SEA DIR/SP/G
                 (UTC)          (F)     (DEG/KT/KT) (MB)    (MI)
150E HAT   41001 NOT AVBL
W BERMUDA  41048 0850            68 74  260/  8/ 12 1023.9R
WVE H/P(F/S)=  4/ 9 SWL H/P/D(F/S/D)=  5/ 40/ 9

ATLANTIC S 41049 0850            72 77   30/ 12/ 16 1023.2F
WVE H/P(F/S)=  8/10 SWL H/P/D(F/S/D)=  8/320/10

E BAHAMAS  41046 0850            77 80   70/  8/ 12 1021.0F
WVE H/P(F/S)=  5/ 9 SWL H/P/D(F/S/D)=  5/ 30/ 9

NE BAHAMAS 41047 0850            69      70/  8/ 12 1023.9F
WVE H/P(F/S)=  4/ 8 SWL H/P/D(F/S/D)=  3/ 40/ 8

120E CANVRL41010 NOT AVBL

END



USA.gov is the U.S. government's official web portal to all federal, state and local government web resources and services.